Location: Antichan
(42.9728°N, 0.6667°E)
Time: 09:58:30
(UTC+00:00)

Cosmos 2346 Rocket - Pass Details

Date: 15 August 2020
Orbit: 936 x 980 km, 82.9° (Epoch: 19 September)

Event Time Altitude Azimuth Distance (km) Brightness Sun altitude
Rises 21:54:29 0° 352° (N) 3,606 8.5 -26.3°
Reaches altitude 10° 21:56:59 10° 353° (N) 2,657 7.6 -26.6°
Maximum altitude 22:03:03 86° 84° (E) 946 4.3 -27.2°
Enters shadow 22:03:36 75° 159° (SSE) 972 4.2 -27.2°
